TimeMDT,TemperatureF,Dew PointF,Humidity,Sea Level PressureIn,VisibilityMPH,Wind Direction,Wind SpeedMPH,Gust SpeedMPH,PrecipitationIn,Events,Conditions,WindDirDegrees,DateUTC
12:53 AM,39.9,18.0,41,29.96,10.0,North,6.9,-,N/A,,Clear,10,2013-04-22 06:53:00
1:53 AM,37.9,19.0,47,29.95,10.0,Calm,Calm,-,N/A,,Clear,0,2013-04-22 07:53:00
2:53 AM,32.0,16.0,52,29.95,10.0,ESE,3.5,-,N/A,,Partly Cloudy,110,2013-04-22 08:53:00
3:53 AM,35.1,19.0,52,29.94,10.0,North,5.8,-,N/A,,Scattered Clouds,10,2013-04-22 09:53:00
4:53 AM,36.0,18.0,48,29.92,10.0,Calm,Calm,-,N/A,,Overcast,0,2013-04-22 10:53:00
5:53 AM,34.0,18.0,52,29.93,10.0,ENE,5.8,-,N/A,,Partly Cloudy,70,2013-04-22 11:53:00
6:53 AM,33.1,19.9,59,29.96,10.0,NE,8.1,-,N/A,,Clear,40,2013-04-22 12:53:00
7:53 AM,39.9,19.9,45,29.96,10.0,ENE,5.8,-,N/A,,Clear,60,2013-04-22 13:53:00
8:53 AM,46.0,21.9,39,29.95,10.0,East,3.5,-,N/A,,Clear,80,2013-04-22 14:53:00
9:53 AM,55.0,19.9,25,29.93,10.0,WSW,5.8,-,N/A,,Clear,240,2013-04-22 15:53:00
10:53 AM,60.1,19.9,21,29.90,10.0,SW,10.4,18.4,N/A,,Clear,220,2013-04-22 16:53:00
11:53 AM,63.0,19.0,18,29.88,10.0,WSW,16.1,25.3,N/A,,Partly Cloudy,250,2013-04-22 17:53:00
12:53 PM,66.0,19.0,17,29.83,10.0,WSW,21.9,31.1,N/A,,Partly Cloudy,250,2013-04-22 18:53:00
1:53 PM,66.9,18.0,15,29.80,10.0,West,25.3,44.9,N/A,,Clear,280,2013-04-22 19:53:00
2:53 PM,68.0,17.1,14,29.81,10.0,West,29.9,42.6,N/A,,Clear,260,2013-04-22 20:53:00
3:53 PM,69.1,16.0,13,29.77,10.0,West,27.6,39.1,N/A,,Clear,270,2013-04-22 21:53:00
4:53 PM,69.1,15.1,13,29.72,10.0,West,28.8,40.3,N/A,,Clear,270,2013-04-22 22:53:00
5:53 PM,68.0,15.1,13,29.73,10.0,West,24.2,40.3,N/A,,Clear,280,2013-04-22 23:53:00
6:53 PM,66.0,15.1,14,29.72,10.0,West,17.3,26.5,N/A,,Clear,270,2013-04-23 00:53:00
7:53 PM,61.0,16.0,17,29.70,10.0,WNW,8.1,-,N/A,,Clear,300,2013-04-23 01:53:00
8:53 PM,59.0,15.1,18,29.69,10.0,Calm,Calm,-,N/A,,Partly Cloudy,0,2013-04-23 02:53:00
9:53 PM,54.0,16.0,22,29.68,10.0,SSE,3.5,-,N/A,,Partly Cloudy,160,2013-04-23 03:53:00
10:53 PM,48.9,17.1,28,29.67,10.0,NNE,6.9,-,N/A,,Partly Cloudy,20,2013-04-23 04:53:00
11:53 PM,45.0,18.0,34,29.67,10.0,Calm,Calm,-,N/A,,Clear,0,2013-04-23 05:53:00